Dewpoint
-4 -3 -3 -3 -3 -4 -6 -6 -5 -6 -4 -1 -3 -4 -5 -5 -4 -6 -5 -4 -3 -3 -3 -2 -1 -1 -3 -4 -4 -4 -5 -6 -7 -7 -8 -9 -11 -16 -18 -17 -12 -9 -9 -8
-3 -4 -3 -3 -5 -5 -5 -6 -5 -2 -2 -3 -4 -5 -5 -4 -6 -5 -3 -3 -2 -3 -3 -1 -1 -3 -4 -5 -6 -6 -6 -7 -7 -8 -8 -8 -10 -18 -20 -19 -18 -13 -9 -9
-3 -3 -4 -7 -4 -5 -2 -1 -1 -1 -1 -3 -4 -4 -4 -4 -5 -3 -3 -2 -2 -2 -2 -2 -3 -4 -5 -6 -7 -7 -7 -8 -8 -8 -8 -9 -10 -19 -22 -22 -21 -20 -19 -19
-1 -4 -12 -9 -5 -4 -1 -1 -2 -3 -3 -4 -4 -4 -6 -6 -3 -2 -2 -3 -3 -2 -2 -3 -4 -5 -6 -7 -7 -7 -8 -8 -8 -9 -8 -9 -11 -17 -21 -21 -21 -20 -19 -16
-4 -0 -5 -3 -4 -2 -2 -1 -3 -3 -4 -4 -4 -6 -7 -4 -2 -3 -3 -3 -4 -4 -5 -5 -6 -7 -7 -8 -8 -8 -8 -9 -10 -10 -10 -11 -14 -20 -22 -22 -21 -20 -19 -19
-5 -5 -3 -5 -4 -4 -5 -1 -3 -3 -4 -4 -4 -4 -6 -3 -3 -3 -4 -4 -5 -5 -5 -6 -7 -7 -8 -9 -11 -11 -10 -10 -11 -12 -13 -17 -20 -23 -24 -23 -21 -20 -19 -18
-1 -3 -3 -5 -4 -4 -1 -2 -3 -4 -4 -4 -4 -5 -4 -3 -3 -4 -5 -5 -5 -6 -7 -7 -8 -9 -13 -20 -21 -20 -21 -23 -24 -26 -29 -31 -30 -29 -27 -24 -22 -21 -21 -20
-1 -0 -2 -3 -4 -3 -3 -3 -5 -5 -4 -3 -3 -3 -2 -3 -4 -5 -5 -6 -6 -7 -8 -9 -14 -15 -16 -13 -11 -13 -15 -19 -23 -26 -28 -32 -33 -29 -27 -25 -23 -23 -23 -22
-2 -2 -3 -3 -4 -5 -6 -6 -5 -4 -3 -3 -3 -3 -3 -4 -4 -5 -6 -7 -7 -8 -9 -9 -11 -11 -11 -10 -10 -10 -12 -14 -18 -21 -23 -25 -33 -29 -27 -25 -22 -24 -23 -21
-3 -2 -3 -4 -5 -5 -5 -4 -4 -4 -3 -3 -2 -3 -3 -4 -5 -6 -6 -8 -8 -9 -9 -9 -9 -10 -10 -9 -10 -11 -12 -16 -19 -20 -22 -22 -27 -29 -28 -24 -22 -23 -22 -20
-2 -2 -3 -3 -4 -5 -5 -4 -4 -3 -3 -3 -3 -4 -4 -5 -6 -6 -7 -8 -8 -9 -9 -9 -9 -9 -10 -10 -10 -13 -18 -20 -20 -21 -21 -22 -24 -26 -29 -25 -21 -20 -18 -15
-1 -3 -3 -3 -3 -4 -4 -4 -4 -3 -4 -3 -3 -4 -4 -5 -6 -7 -8 -8 -9 -9 -9 -10 -10 -12 -14 -15 -17 -21 -23 -23 -22 -24 -25 -27 -28 -31 -33 -34 -32 -24 -16 -15
-4 -3 -3 -4 -4 -4 -4 -4 -4 -4 -4 -4 -4 -4 -5 -6 -7 -7 -8 -8 -9 -15 -15 -16 -17 -19 -21 -22 -24 -25 -25 -26 -27 -28 -29 -30 -32 -34 -34 -34 -32 -23 -17 -16
-2 -2 -4 -4 -5 -5 -5 -4 -4 -4 -5 -5 -5 -5 -6 -6 -7 -8 -8 -9 -14 -15 -15 -16 -19 -22 -23 -24 -25 -26 -27 -28 -29 -29 -30 -32 -34 -35 -35 -35 -35 -29 -22 -18
-3 -4 -5 -5 -5 -5 -4 -5 -5 -5 -6 -6 -6 -6 -7 -7 -8 -9 -11 -16 -16 -18 -20 -23 -26 -25 -25 -26 -27 -29 -30 -30 -30 -32 -33 -33 -34 -35 -35 -35 -35 -35 -32 -25
-4 -5 -5 -5 -6 -5 -5 -5 -5 -6 -7 -6 -7 -7 -8 -8 -9 -11 -16 -16 -17 -22 -23 -25 -27 -25 -25 -27 -28 -29 -30 -31 -31 -32 -33 -34 -35 -35 -35 -35 -35 -35 -35 -32
-4 -5 -5 -6 -5 -5 -6 -6 -6 -6 -7 -7 -8 -8 -8 -9 -11 -15 -14 -15 -17 -22 -26 -27 -26 -25 -25 -26 -28 -30 -31 -31 -31 -31 -32 -33 -34 -34 -35 -35 -35 -34 -34 -34
-3 -5 -6 -6 -6 -6 -6 -6 -7 -7 -7 -8 -8 -9 -9 -9 -12 -15 -17 -19 -22 -26 -27 -28 -27 -27 -27 -28 -29 -31 -31 -31 -31 -31 -31 -31 -32 -33 -33 -34 -34 -34 -35 -35
-4 -7 -7 -6 -6 -6 -7 -7 -8 -8 -8 -8 -9 -9 -9 -12 -16 -19 -21 -22 -26 -29 -29 -28 -27 -27 -28 -28 -29 -30 -31 -31 -31 -31 -30 -30 -30 -31 -31 -32 -33 -34 -34 -35
-7 -7 -7 -7 -7 -7 -7 -8 -8 -9 -9 -9 -9 -10 -11 -18 -20 -22 -24 -27 -28 -27 -28 -28 -29 -29 -30 -30 -29 -30 -31 -32 -31 -31 -30 -30 -29 -30 -31 -31 -32 -33 -33 -34
-8 -7 -7 -7 -7 -8 -8 -9 -9 -9 -9 -9 -9 -11 -18 -23 -23 -24 -25 -27 -27 -27 -27 -29 -29 -30 -30 -29 -30 -31 -31 -32 -32 -31 -30 -29 -29 -29 -30 -31 -32 -32 -33 -33
-8 -8 -8 -8 -9 -9 -9 -9 -9 -9 -9 -10 -13 -19 -22 -22 -22 -22 -22 -24 -28 -29 -28 -29 -29 -30 -30 -30 -30 -31 -32 -32 -32 -31 -30 -29 -29 -29 -29 -30 -30 -31 -32 -33
-8 -8 -9 -9 -9 -9 -9 -9 -9 -9 -10 -12 -16 -21 -22 -23 -23 -23 -25 -29 -30 -30 -29 -29 -29 -30 -30 -30 -31 -31 -32 -32 -32 -31 -30 -29 -29 -29 -29 -29 -29 -30 -31 -32
-8 -9 -9 -9 -9 -9 -9 -9 -9 -9 -10 -13 -19 -21 -22 -22 -23 -23 -27 -31 -31 -30 -29 -28 -29 -30 -30 -31 -31 -31 -31 -32 -31 -30 -30 -29 -29 -28 -28 -29 -29 -29 -30 -31
-9 -9 -9 -9 -9 -9 -9 -9 -10 -10 -14 -20 -21 -21 -20 -19 -20 -23 -30 -32 -31 -30 -29 -29 -29 -30 -31 -31 -31 -31 -31 -31 -31 -29 -29 -29 -28 -28 -29 -29 -29 -29 -31 -32
-9 -9 -10 -9 -9 -9 -9 -10 -12 -15 -20 -23 -22 -21 -20 -20 -20 -22 -30 -32 -31 -30 -29 -29 -28 -29 -30 -31 -31 -31 -31 -31 -30 -29 -28 -28 -28 -29 -29 -29 -29 -29 -31 -33
-9 -9 -10 -9 -9 -10 -10 -10 -13 -20 -24 -25 -24 -22 -21 -21 -20 -23 -29 -32 -31 -30 -29 -28 -28 -28 -29 -30 -31 -31 -31 -31 -30 -30 -29 -28 -28 -29 -30 -30 -29 -29 -31 -33
Wind_Speed
3 5 3 4 6 6 5 5 5 0 4 5 10 16 23 25 27 32 33 36 35 32 32 25 18 28 16 18 19 20 19 19 20 19 21 23 22 22 23 22 20 20 22 23
4 2 5 5 7 9 6 4 5 3 2 8 14 20 24 27 25 31 33 34 33 30 28 24 17 15 14 15 16 17 17 19 19 20 19 19 21 22 22 23 23 23 23 25
4 4 7 7 6 6 3 1 1 2 1 10 13 19 23 19 28 29 33 32 32 31 25 15 12 13 14 13 13 14 15 15 16 16 17 18 19 21 23 23 23 25 26 27
2 3 2 4 6 4 6 3 2 1 3 6 9 19 17 17 27 31 27 23 21 16 9 11 11 12 14 15 16 16 16 15 16 17 16 16 18 20 22 23 24 25 26 28
2 2 6 1 5 5 5 5 5 2 6 7 12 12 4 21 20 14 18 18 15 15 15 14 15 14 14 14 14 15 15 16 16 16 15 15 17 19 20 21 23 26 26 27
3 3 5 2 2 2 2 4 11 5 6 7 8 3 3 19 10 13 12 12 13 14 14 15 15 13 15 16 15 16 16 15 14 15 15 16 17 18 18 20 23 24 26 28
3 2 7 4 4 1 2 2 8 5 7 7 3 2 12 6 6 5 9 11 11 12 14 14 15 14 17 18 22 20 17 17 17 17 17 17 17 17 18 20 22 24 27 29
3 1 8 5 2 5 5 5 3 5 5 8 8 6 4 2 5 6 10 10 12 12 13 15 15 13 15 19 17 15 16 16 17 17 18 20 19 19 20 22 24 25 27 28
8 5 3 5 4 8 5 4 5 5 5 7 8 3 5 1 2 7 9 9 10 11 12 12 12 13 12 12 11 12 14 15 16 16 17 21 24 22 23 24 26 27 29 30
3 4 9 9 10 7 3 3 4 3 5 3 4 7 6 3 2 5 5 7 7 8 10 9 7 9 9 10 10 10 12 14 16 18 19 22 25 25 24 26 26 27 28 29
1 4 7 9 9 6 4 4 3 5 7 6 7 4 5 4 3 3 4 5 5 5 7 7 5 7 8 8 9 9 11 12 14 16 17 19 21 23 24 24 24 24 26 26
5 13 8 6 17 9 7 5 4 6 7 5 5 6 6 2 2 2 3 3 3 4 5 5 4 6 7 7 8 9 10 13 13 14 15 16 16 18 20 21 21 21 22 24
3 8 12 8 10 8 7 5 5 7 6 6 5 5 4 3 3 4 3 4 4 6 6 6 6 8 10 9 9 10 12 13 13 14 15 16 17 17 17 18 19 21 23 25
11 12 10 11 7 9 6 5 4 8 9 8 6 6 6 5 6 6 5 4 4 3 4 5 6 8 9 9 10 11 12 13 13 14 15 16 16 17 19 21 22 23 24 24
14 11 6 6 9 8 7 5 6 8 10 9 8 7 6 7 8 7 5 5 4 4 5 5 7 9 9 9 9 11 13 13 14 15 15 15 17 19 20 22 23 24 24 26
13 10 7 7 9 9 10 8 7 10 10 10 10 9 9 9 9 9 8 6 3 6 6 6 8 9 8 9 10 11 12 13 12 14 15 17 19 20 20 22 24 27 28 30
15 13 12 11 11 11 9 9 8 12 11 11 11 11 10 11 11 10 8 5 4 6 7 7 8 7 7 8 9 11 11 10 12 14 17 19 19 20 22 23 24 25 27 29
14 10 9 8 13 12 10 9 10 11 12 12 12 11 10 10 11 10 7 6 4 5 7 7 7 7 7 8 9 9 9 10 12 15 17 18 20 21 22 23 24 25 26 27
15 9 9 10 11 9 10 13 11 12 13 13 13 12 11 11 11 10 8 6 4 5 7 6 6 6 7 8 7 7 9 11 13 15 16 17 19 20 22 24 25 26 27 28
14 11 9 10 10 9 12 14 14 13 14 13 13 13 14 13 12 10 7 6 7 6 7 6 6 7 7 6 6 7 10 12 13 14 15 16 18 20 21 23 24 26 27 29
12 11 11 11 11 12 13 14 14 15 14 13 12 13 14 13 11 8 7 6 6 6 5 5 6 6 5 5 7 9 11 12 12 13 14 16 18 19 21 22 24 26 27 28
13 14 13 14 15 17 16 15 15 15 15 15 15 14 14 12 10 9 6 4 4 5 5 4 5 5 6 7 8 9 10 10 11 13 14 16 17 19 20 21 23 25 26 27
15 15 15 16 17 17 17 17 16 15 15 16 16 15 12 9 7 6 5 5 5 5 5 3 3 5 6 7 8 8 8 9 10 12 14 16 17 18 19 20 22 23 25 26
17 17 16 17 18 18 19 19 17 15 14 13 13 12 12 11 10 9 7 6 7 6 5 3 3 4 5 7 7 6 7 8 9 11 13 15 16 17 18 19 20 22 23 24
17 17 18 19 19 18 18 19 18 18 19 18 17 14 12 11 9 7 8 8 7 6 5 3 3 2 4 5 5 5 5 6 8 10 13 14 15 16 17 18 20 21 22 23
19 19 18 17 16 17 18 19 19 19 20 19 17 16 15 14 11 9 11 10 9 7 5 4 3 2 3 4 3 4 4 4 6 9 11 12 14 15 15 17 19 21 22 23
18 17 17 18 18 18 17 18 18 19 18 17 16 16 16 14 13 12 13 12 10 9 7 5 4 3 2 1 1 2 2 3 4 7 9 10 12 13 14 15 17 19 21 22
Wind_Direction
254 262 272 257 277 272 209 209 215 303 326 11 350 338 333 335 347 342 344 338 334 330 338 337 327 326 348 3 11 9 9 17 26 23 24 30 32 31 34 40 47 49 53 51
291 337 334 270 246 261 262 230 263 1 216 7 340 328 343 349 341 341 333 334 336 337 348 344 330 346 7 7 18 15 22 30 31 30 31 25 23 28 31 36 42 48 47 46
260 349 324 293 232 184 123 75 197 251 197 337 338 334 328 335 343 334 331 332 335 338 342 330 347 3 11 18 20 28 35 33 34 32 27 26 27 32 35 38 39 45 47 46
257 7 343 277 335 143 121 134 120 171 321 341 317 315 329 347 342 340 344 356 9 27 51 12 16 21 20 32 36 39 32 24 24 22 22 19 24 32 35 37 41 44 48 48
140 221 293 226 169 149 183 234 189 256 304 321 336 324 33 356 7 7 16 18 22 26 30 24 22 24 34 35 28 31 31 29 23 19 18 19 30 37 39 38 41 43 43 45
77 153 234 242 183 307 135 271 186 228 293 312 328 31 284 346 352 352 9 28 24 18 17 22 27 33 39 36 31 32 26 20 19 26 29 34 38 37 40 43 46 47 46 44
153 236 283 221 223 117 133 253 190 262 282 287 282 275 317 336 329 6 24 31 19 22 37 40 39 39 46 49 51 49 49 50 48 46 45 44 44 44 46 49 50 48 47 44
147 196 273 173 151 191 148 161 238 263 272 287 286 307 333 307 348 24 24 16 25 44 48 50 49 51 66 59 50 44 45 44 45 46 48 45 43 46 46 48 48 46 43 41
179 213 135 159 173 139 165 187 228 246 252 262 276 250 207 240 28 27 29 37 50 58 66 65 65 63 51 48 33 32 29 33 38 40 41 41 42 43 45 43 42 38 36 34
98 167 165 157 158 174 159 195 213 224 228 220 129 154 194 184 109 44 42 51 62 59 57 56 44 33 27 20 16 13 21 30 33 37 36 35 38 38 40 39 36 33 31 29
134 99 159 208 210 194 185 204 199 187 171 160 153 169 205 163 122 64 47 71 67 51 46 55 33 16 12 4 357 9 30 35 34 34 35 37 31 33 37 39 34 32 29 27
231 196 181 204 201 192 199 212 202 178 181 187 199 194 186 178 159 104 112 99 72 55 46 43 9 13 28 27 25 30 36 38 39 37 37 39 41 40 41 40 35 34 33 33
280 189 202 170 171 184 204 210 197 177 185 181 201 202 199 177 154 142 150 117 85 71 61 53 47 43 43 37 35 39 44 44 43 43 43 45 46 47 47 45 42 41 38 34
219 188 157 181 193 211 222 224 226 191 186 204 209 203 190 177 145 150 157 121 97 80 63 43 42 50 41 34 36 44 46 45 44 45 45 46 46 46 45 43 43 43 40 36
184 201 229 219 211 216 217 210 227 225 219 201 181 189 174 159 153 156 135 116 131 98 78 57 51 51 39 38 46 50 49 49 46 46 47 49 49 47 44 40 38 38 40 37
196 210 203 216 223 215 201 205 226 218 207 182 178 171 160 157 153 138 132 121 129 103 77 52 53 46 42 43 46 51 50 48 49 52 52 51 47 43 42 40 37 33 31 28
192 196 209 213 219 210 199 207 237 216 184 173 169 164 161 158 151 146 140 140 118 90 76 60 50 44 43 42 43 48 47 52 53 53 51 48 46 44 41 39 37 35 33 29
224 236 242 231 215 198 193 204 208 196 179 171 165 161 161 165 161 153 145 141 131 103 82 63 53 47 48 49 45 48 50 55 54 53 50 46 43 41 39 37 36 34 33 31
217 229 206 193 189 187 190 189 185 170 167 167 165 160 161 164 164 158 155 149 136 107 85 69 59 53 51 47 41 49 56 55 53 51 48 44 41 40 38 36 34 32 30 28
197 190 187 177 178 194 189 172 164 161 163 166 168 171 169 169 168 166 153 147 123 100 83 73 64 59 54 47 53 58 55 52 50 48 45 43 41 39 37 36 34 32 30 28
187 182 176 179 173 171 169 165 161 163 164 169 175 173 170 167 164 164 163 158 133 107 92 82 74 64 60 61 62 58 53 49 47 46 45 43 40 38 36 34 33 32 30 28
181 176 176 167 165 162 157 156 160 165 163 158 168 174 174 175 173 173 180 179 155 123 106 94 88 80 72 68 64 56 50 48 45 46 46 44 40 37 34 32 31 31 29 27
182 179 174 171 172 167 164 166 168 171 170 171 176 182 186 180 179 189 194 179 160 132 117 115 105 94 81 72 63 53 47 47 48 48 46 43 38 33 28 26 26 25 25 25
186 185 180 176 178 179 178 176 175 175 177 179 180 187 190 192 191 190 189 184 171 150 144 138 118 98 88 77 65 52 45 46 49 49 47 41 34 27 21 20 20 22 22 22
192 189 188 188 187 189 191 188 185 182 182 185 189 193 194 192 194 208 196 184 182 170 158 154 145 127 97 81 68 50 39 43 46 49 45 37 28 22 19 21 23 24 24 21
198 197 201 199 200 202 200 195 195 192 192 193 195 196 197 194 197 200 197 194 189 186 176 177 181 168 112 89 71 49 26 34 43 49 44 35 26 20 19 22 24 25 25 24
203 203 203 201 204 210 208 204 203 204 201 201 200 201 200 201 205 206 201 204 199 194 195 195 196 200 163 118 87 40 356 16 34 42 42 32 23 17 16 20 24 26 24 23
Height
1575 1574 1574 1572 1572 1572 1572 1574 1576 1568 1571 1576 1572 1569 1566 1562 1555 1550 1544 1542 1537 1532 1525 1520 1516 1512 1507 1502 1497 1493 1488 1483 1480 1477 1473 1470 1464 1457 1452 1447 1442 1437 1432 1428
1576 1572 1573 1573 1569 1570 1569 1566 1567 1570 1571 1574 1572 1569 1563 1559 1557 1551 1547 1540 1537 1531 1524 1519 1515 1512 1508 1504 1500 1496 1492 1488 1485 1481 1477 1474 1468 1462 1456 1451 1445 1440 1434 1429
1581 1578 1576 1573 1563 1560 1567 1569 1568 1568 1573 1572 1571 1567 1564 1562 1557 1553 1546 1539 1534 1528 1523 1519 1516 1513 1510 1506 1502 1499 1496 1494 1490 1486 1482 1478 1473 1466 1460 1455 1451 1444 1438 1433
1590 1583 1607 1561 1556 1557 1563 1570 1570 1570 1570 1572 1572 1568 1563 1561 1557 1552 1546 1539 1535 1529 1523 1521 1518 1514 1512 1508 1504 1502 1499 1497 1493 1489 1486 1482 1477 1470 1465 1461 1455 1450 1445 1441
1604 1593 1574 1558 1559 1564 1562 1565 1568 1568 1569 1569 1568 1565 1562 1561 1555 1556 1549 1541 1538 1534 1529 1526 1522 1518 1514 1511 1508 1505 1502 1499 1496 1493 1489 1485 1479 1474 1470 1466 1461 1455 1451 1446
1609 1609 1593 1556 1557 1559 1561 1564 1565 1565 1566 1568 1566 1564 1561 1560 1558 1557 1550 1542 1539 1535 1532 1529 1525 1521 1517 1515 1512 1508 1505 1503 1500 1496 1492 1488 1483 1479 1476 1471 1467 1462 1457 1452
1589 1600 1574 1556 1557 1558 1565 1563 1561 1561 1563 1565 1563 1562 1560 1558 1558 1555 1551 1544 1539 1536 1533 1531 1528 1525 1521 1519 1515 1513 1510 1507 1504 1500 1496 1492 1487 1483 1480 1476 1472 1467 1463 1458
1579 1586 1579 1553 1558 1560 1557 1558 1559 1559 1560 1561 1561 1558 1558 1559 1557 1553 1548 1544 1539 1536 1535 1533 1531 1528 1526 1523 1522 1519 1516 1512 1508 1505 1501 1496 1492 1487 1484 1480 1476 1472 1467 1463
1558 1558 1552 1552 1553 1554 1554 1554 1555 1555 1556 1556 1557 1555 1557 1557 1556 1551 1548 1545 1542 1539 1538 1536 1535 1533 1531 1529 1526 1523 1520 1516 1512 1508 1504 1500 1495 1491 1487 1483 1479 1476 1472 1467
1548 1549 1550 1551 1552 1553 1552 1554 1553 1552 1554 1553 1553 1554 1555 1554 1554 1551 1549 1547 1545 1543 1541 1539 1538 1537 1535 1532 1529 1526 1522 1519 1515 1511 1507 1503 1499 1496 1492 1488 1484 1480 1476 1472
1545 1547 1549 1550 1550 1549 1549 1551 1550 1551 1552 1551 1551 1553 1554 1552 1552 1550 1550 1548 1546 1545 1543 1541 1541 1539 1537 1534 1531 1528 1524 1521 1518 1515 1511 1508 1504 1500 1497 1493 1490 1486 1482 1478
1539 1534 1538 1540 1544 1545 1547 1548 1549 1550 1552 1552 1551 1552 1552 1551 1550 1550 1550 1549 1548 1546 1545 1543 1543 1541 1539 1536 1533 1530 1527 1524 1521 1518 1515 1512 1509 1506 1502 1499 1496 1492 1488 1483
1533 1533 1538 1539 1542 1544 1545 1546 1546 1547 1547 1548 1550 1551 1551 1550 1549 1550 1551 1550 1549 1549 1547 1546 1545 1543 1541 1539 1536 1533 1530 1527 1525 1522 1519 1516 1513 1510 1507 1504 1500 1496 1491 1487
1532 1533 1536 1536 1539 1543 1543 1543 1542 1544 1546 1546 1547 1549 1549 1548 1549 1551 1552 1551 1551 1550 1550 1548 1547 1545 1543 1541 1538 1536 1533 1531 1529 1526 1523 1520 1517 1514 1511 1507 1503 1499 1496 1492
1530 1532 1532 1534 1537 1540 1540 1539 1542 1542 1545 1545 1545 1547 1548 1548 1550 1552 1554 1553 1553 1553 1552 1551 1550 1548 1546 1543 1541 1539 1536 1534 1532 1530 1527 1524 1521 1517 1513 1510 1506 1503 1499 1495
1528 1531 1530 1533 1537 1538 1535 1537 1540 1543 1544 1544 1545 1547 1547 1549 1551 1553 1554 1555 1555 1554 1554 1553 1551 1550 1549 1546 1544 1542 1540 1538 1536 1534 1531 1527 1524 1521 1517 1513 1509 1504 1500 1495
1525 1528 1529 1530 1535 1535 1532 1536 1539 1543 1543 1544 1546 1547 1549 1550 1552 1553 1555 1556 1557 1556 1555 1555 1554 1553 1551 1549 1547 1545 1544 1542 1540 1537 1534 1531 1528 1525 1521 1517 1513 1509 1504 1499
1523 1525 1526 1528 1532 1532 1532 1535 1540 1542 1543 1544 1546 1548 1550 1552 1553 1554 1556 1557 1557 1557 1556 1556 1555 1555 1554 1552 1551 1549 1547 1545 1543 1540 1537 1535 1531 1528 1524 1521 1517 1513 1509 1505
1522 1523 1525 1528 1529 1530 1532 1537 1540 1541 1543 1545 1547 1549 1551 1553 1554 1556 1557 1557 1558 1558 1558 1557 1557 1557 1556 1555 1554 1552 1550 1548 1546 1543 1541 1538 1535 1532 1528 1524 1520 1516 1512 1508
1521 1522 1524 1525 1528 1531 1534 1537 1539 1541 1544 1546 1548 1550 1551 1553 1555 1557 1558 1559 1559 1559 1559 1559 1559 1559 1558 1558 1557 1555 1553 1551 1548 1547 1544 1542 1539 1536 1532 1529 1525 1521 1516 1512
1519 1521 1523 1526 1528 1532 1535 1537 1539 1541 1544 1547 1549 1551 1553 1555 1557 1559 1560 1560 1560 1560 1561 1561 1560 1560 1560 1559 1558 1557 1555 1553 1552 1550 1548 1545 1542 1539 1536 1533 1529 1525 1520 1516
1519 1521 1524 1526 1530 1533 1535 1538 1540 1543 1545 1547 1550 1553 1555 1557 1558 1560 1560 1561 1561 1561 1562 1562 1562 1562 1562 1561 1560 1559 1557 1556 1555 1553 1551 1548 1546 1543 1540 1537 1533 1529 1525 1521
1520 1522 1524 1527 1531 1534 1536 1539 1541 1543 1545 1547 1550 1553 1555 1557 1559 1560 1561 1562 1562 1563 1563 1564 1564 1564 1563 1562 1561 1561 1560 1559 1557 1555 1553 1551 1548 1546 1543 1540 1537 1533 1529 1525
1520 1522 1524 1528 1531 1534 1536 1539 1541 1543 1546 1548 1550 1553 1555 1557 1559 1560 1561 1562 1563 1564 1564 1565 1565 1565 1564 1563 1563 1562 1562 1561 1559 1558 1555 1553 1551 1549 1547 1544 1540 1536 1533 1529
1519 1521 1524 1526 1530 1533 1536 1538 1540 1542 1544 1547 1549 1552 1554 1557 1559 1560 1561 1563 1564 1564 1565 1565 1566 1566 1565 1564 1564 1564 1564 1563 1562 1559 1557 1555 1554 1552 1549 1547 1543 1539 1535 1531
1518 1520 1523 1526 1529 1532 1534 1536 1538 1540 1543 1545 1548 1551 1553 1555 1557 1559 1560 1562 1563 1564 1565 1565 1566 1566 1566 1565 1565 1565 1565 1564 1563 1561 1559 1558 1556 1554 1552 1549 1546 1542 1539 1535
1517 1519 1522 1524 1527 1530 1532 1534 1536 1538 1541 1544 1547 1549 1552 1554 1556 1558 1559 1561 1563 1564 1565 1565 1566 1566 1566 1566 1566 1566 1566 1565 1564 1562 1561 1559 1558 1557 1555 1552 1548 1545 1542 1538